{"data":{"norad_id":45206,"intl_designator":"2020-012AE","name":"STARLINK-1209","alt_names":[],"object_type":"PAYLOAD","status":"ACTIVE","operator":null,"country":"US","launch_date":"2020-02-17","launch_site_code":"AFETR","launch_vehicle":null,"mission":null,"orbit_class":"UNKNOWN","rcs_meters":null,"size_class":null,"mass_kg":null,"dimensions":null,"purposes":["comms"],"wikipedia_slug":null,"has_3d_model":false,"image_url":null,"decayed_at":null,"tle_current":{"epoch":"2026-09-20T06:00:02.000160Z","epoch_age_seconds":36017,"freshness":"FRESH","line1":"1 45206U 20012AE  26263.25002315  .00101680  00000+0  39448-3 0  9995","line2":"2 45206  53.0274  93.4041 0003269 171.4219  31.2672 15.86404871  6007","mean_motion":15.86404871,"eccentricity":0.0003269,"inclination_deg":53.0274,"raan_deg":93.4041,"arg_perigee_deg":171.4219,"mean_anomaly_deg":31.2672,"bstar":0.00039448,"rev_number":600,"period_min":90.771279534227,"perigee_km":310.18475383731,"apogee_km":314.55900854383,"semimajor_km":6690.5088811906,"source":"CELESTRAK","updated_at":"2026-09-20T09:00:38.227241Z"}}}